TimePDT,TemperatureF,Dew PointF,Humidity,Sea Level PressureIn,VisibilityMPH,Wind Direction,Wind SpeedMPH,Gust SpeedMPH,PrecipitationIn,Events,Conditions,WindDirDegrees,DateUTC
12:15 AM,62.6,32.0,32,29.99,10.0,West,8.1,-,N/A,,Clear,280,2013-07-15 07:15:00
12:35 AM,60.8,30.2,31,29.99,10.0,SSW,4.6,-,N/A,,Clear,210,2013-07-15 07:35:00
12:55 AM,57.2,30.2,36,29.99,10.0,Calm,Calm,-,N/A,,Clear,0,2013-07-15 07:55:00
1:15 AM,57.2,32.0,38,29.99,10.0,NNE,3.5,-,N/A,,Clear,20,2013-07-15 08:15:00
1:35 AM,62.6,32.0,32,30.00,10.0,ENE,6.9,-,N/A,,Clear,70,2013-07-15 08:35:00
1:55 AM,53.6,30.2,41,30.00,10.0,South,4.6,-,N/A,,Clear,190,2013-07-15 08:55:00
2:15 AM,53.6,32.0,44,29.99,10.0,SSW,5.8,-,N/A,,Clear,200,2013-07-15 09:15:00
2:35 AM,53.6,32.0,44,29.99,10.0,Calm,Calm,-,N/A,,Clear,0,2013-07-15 09:35:00
2:55 AM,51.8,30.2,44,30.00,10.0,Calm,Calm,-,N/A,,Clear,0,2013-07-15 09:55:00
3:15 AM,51.8,32.0,47,30.00,10.0,Calm,Calm,-,N/A,,Clear,0,2013-07-15 10:15:00
3:35 AM,53.6,32.0,44,30.00,10.0,Calm,Calm,-,N/A,,Clear,0,2013-07-15 10:35:00
3:55 AM,51.8,30.2,44,30.00,10.0,Calm,Calm,-,N/A,,Clear,0,2013-07-15 10:55:00
4:15 AM,50.0,30.2,47,30.00,10.0,Calm,Calm,-,N/A,,Clear,0,2013-07-15 11:15:00
4:35 AM,48.2,28.4,46,30.00,10.0,Calm,Calm,-,N/A,,Clear,0,2013-07-15 11:35:00
4:55 AM,50.0,30.2,47,30.00,10.0,Calm,Calm,-,N/A,,Clear,0,2013-07-15 11:55:00
5:15 AM,48.2,28.4,46,30.00,10.0,Calm,Calm,-,N/A,,Clear,0,2013-07-15 12:15:00
5:35 AM,48.2,30.2,50,30.00,10.0,Calm,Calm,-,N/A,,Clear,0,2013-07-15 12:35:00
5:55 AM,48.2,30.2,50,30.00,10.0,ESE,3.5,-,N/A,,Clear,110,2013-07-15 12:55:00
6:15 AM,51.8,33.8,50,30.00,10.0,South,3.5,-,N/A,,Clear,180,2013-07-15 13:15:00
6:35 AM,51.8,33.8,50,30.01,10.0,Calm,Calm,-,N/A,,Clear,0,2013-07-15 13:35:00
6:55 AM,53.6,33.8,47,30.01,10.0,Calm,Calm,-,N/A,,Clear,0,2013-07-15 13:55:00
7:15 AM,57.2,35.6,44,30.01,10.0,Calm,Calm,-,N/A,,Clear,0,2013-07-15 14:15:00
7:35 AM,59.0,35.6,42,30.01,10.0,Calm,Calm,-,N/A,,Clear,0,2013-07-15 14:35:00
7:55 AM,60.8,37.4,42,30.01,10.0,Calm,Calm,-,N/A,,Clear,0,2013-07-15 14:55:00
8:15 AM,62.6,37.4,39,30.01,10.0,Calm,Calm,-,N/A,,Clear,0,2013-07-15 15:15:00
8:35 AM,66.2,39.2,37,30.01,10.0,NE,3.5,-,N/A,,Clear,50,2013-07-15 15:35:00
8:55 AM,71.6,39.2,31,30.01,10.0,North,8.1,-,N/A,,Clear,350,2013-07-15 15:55:00
9:15 AM,71.6,39.2,31,30.00,10.0,North,8.1,-,N/A,,Clear,10,2013-07-15 16:15:00
9:35 AM,73.4,39.2,29,30.00,10.0,NNE,10.4,-,N/A,,Clear,20,2013-07-15 16:35:00
9:55 AM,75.2,37.4,25,29.99,10.0,NNW,8.1,-,N/A,,Clear,330,2013-07-15 16:55:00
10:15 AM,75.2,39.2,27,29.99,10.0,North,6.9,-,N/A,,Clear,360,2013-07-15 17:15:00
10:35 AM,77.0,39.2,26,29.99,10.0,NNW,6.9,-,N/A,,Clear,340,2013-07-15 17:35:00
10:55 AM,78.8,39.2,24,29.98,10.0,NNW,6.9,-,N/A,,Clear,340,2013-07-15 17:55:00
11:15 AM,80.6,39.2,23,29.98,10.0,NNE,10.4,-,N/A,,Clear,20,2013-07-15 18:15:00
11:35 AM,80.6,39.2,23,29.97,10.0,Calm,Calm,-,N/A,,Clear,0,2013-07-15 18:35:00
11:55 AM,82.4,39.2,21,29.96,10.0,NNE,8.1,-,N/A,,Clear,30,2013-07-15 18:55:00
12:15 PM,82.4,41.0,23,29.96,10.0,NE,5.8,-,N/A,,Clear,40,2013-07-15 19:15:00
12:35 PM,84.2,41.0,22,29.95,10.0,NW,5.8,-,N/A,,Clear,320,2013-07-15 19:35:00
12:55 PM,84.2,41.0,22,29.95,10.0,North,3.5,-,N/A,,Clear,10,2013-07-15 19:55:00
1:15 PM,84.2,41.0,22,29.95,10.0,NNE,3.5,-,N/A,,Clear,20,2013-07-15 20:15:00
1:35 PM,86.0,41.0,20,29.94,10.0,NW,8.1,-,N/A,,Clear,320,2013-07-15 20:35:00
1:55 PM,87.8,42.8,21,29.94,10.0,NW,10.4,-,N/A,,Clear,320,2013-07-15 20:55:00
2:15 PM,87.8,42.8,21,29.93,10.0,WNW,11.5,16.1,N/A,,Clear,290,2013-07-15 21:15:00
2:35 PM,87.8,42.8,21,29.93,10.0,WNW,12.7,17.3,N/A,,Clear,300,2013-07-15 21:35:00
2:55 PM,89.6,42.8,20,29.92,10.0,WNW,13.8,17.3,N/A,,Clear,300,2013-07-15 21:55:00
3:15 PM,89.6,41.0,18,29.92,10.0,NW,11.5,18.4,N/A,,Clear,320,2013-07-15 22:15:00
3:35 PM,87.8,42.8,21,29.91,10.0,NNE,13.8,17.3,N/A,,Clear,20,2013-07-15 22:35:00
3:55 PM,87.8,42.8,21,29.91,10.0,North,12.7,-,N/A,,Clear,10,2013-07-15 22:55:00
4:15 PM,87.8,42.8,21,29.91,10.0,North,11.5,-,N/A,,Clear,360,2013-07-15 23:15:00
4:35 PM,87.8,42.8,21,29.90,10.0,North,13.8,18.4,N/A,,Clear,360,2013-07-15 23:35:00
4:55 PM,87.8,42.8,21,29.91,10.0,North,11.5,-,N/A,,Clear,360,2013-07-15 23:55:00
5:15 PM,87.8,41.0,19,29.90,10.0,NW,16.1,24.2,N/A,,Clear,310,2013-07-16 00:15:00
5:35 PM,86.0,41.0,20,29.90,10.0,North,11.5,-,N/A,,Clear,350,2013-07-16 00:35:00
5:55 PM,84.2,41.0,22,29.90,10.0,North,11.5,-,N/A,,Clear,350,2013-07-16 00:55:00
6:15 PM,84.2,41.0,22,29.90,10.0,NNW,11.5,16.1,N/A,,Clear,330,2013-07-16 01:15:00
6:35 PM,82.4,39.2,21,29.90,10.0,North,13.8,17.3,N/A,,Clear,360,2013-07-16 01:35:00
6:55 PM,82.4,39.2,21,29.90,10.0,NNW,10.4,-,N/A,,Clear,330,2013-07-16 01:55:00
7:15 PM,80.6,39.2,23,29.90,10.0,North,9.2,-,N/A,,Clear,350,2013-07-16 02:15:00
7:35 PM,78.8,39.2,24,29.91,10.0,NNW,10.4,-,N/A,,Clear,340,2013-07-16 02:35:00
7:55 PM,78.8,39.2,24,29.91,10.0,NNW,8.1,-,N/A,,Clear,330,2013-07-16 02:55:00
8:15 PM,77.0,39.2,26,29.91,10.0,NW,11.5,-,N/A,,Clear,310,2013-07-16 03:15:00
8:35 PM,75.2,37.4,25,29.91,10.0,NW,8.1,-,N/A,,Clear,320,2013-07-16 03:35:00
8:55 PM,73.4,37.4,27,29.91,10.0,WNW,9.2,-,N/A,,Clear,300,2013-07-16 03:55:00
9:15 PM,73.4,37.4,27,29.92,10.0,NW,11.5,-,N/A,,Clear,310,2013-07-16 04:15:00
9:35 PM,73.4,35.6,25,29.92,10.0,NW,11.5,-,N/A,,Clear,310,2013-07-16 04:35:00
9:55 PM,71.6,35.6,27,29.93,10.0,NNW,8.1,-,N/A,,Clear,330,2013-07-16 04:55:00
10:15 PM,71.6,35.6,27,29.93,10.0,NNW,12.7,-,N/A,,Clear,330,2013-07-16 05:15:00
10:35 PM,69.8,35.6,28,29.92,10.0,NNW,12.7,-,N/A,,Clear,330,2013-07-16 05:35:00
10:55 PM,71.6,35.6,27,29.92,10.0,NW,11.5,-,N/A,,Clear,320,2013-07-16 05:55:00
11:15 PM,69.8,35.6,28,29.92,10.0,NW,16.1,-,N/A,,Clear,320,2013-07-16 06:15:00
11:35 PM,69.8,35.6,28,29.92,10.0,NW,13.8,-,N/A,,Clear,310,2013-07-16 06:35:00
11:55 PM,71.6,35.6,27,29.92,10.0,NW,10.4,-,N/A,,Clear,310,2013-07-16 06:55:00